FW8536 Weather Reports


Display with metric or nautical units.
time (UTC)temp
F
wind
direction
speed
MPH
gust
MPH
rain 1hr
in
rain 24hr
in
rain mn
in
humidity
%
barometer
mb
20240228054035 6 313 0.0 0.0 0.00 0.00 0.00 71 1011.4
20240228053533 6 313 0.0 0.0 0.00 0.00 0.00 72 1011.3
20240228053034 6 313 0.0 0.0 0.00 0.00 0.00 72 1011.3
20240228052530 6 313 0.0 0.0 0.00 0.00 0.00 72 1011.3
20240228052030 6 313 0.0 0.0 0.00 0.00 0.00 74 1011.2
20240228051533 6 313 0.0 0.0 0.00 0.00 0.00 74 1011.2
20240228051028 5 313 0.0 0.0 0.00 0.00 0.00 75 1011.2
20240228050531 5 313 0.0 0.0 0.00 0.00 0.00 75 1011.1
20240228050026 5 313 0.0 0.0 0.00 0.00 0.00 76 1011.2
20240228045524 5 313 0.0 0.0 0.00 0.00 0.00 76 1011.4
20240228045023 5 313 0.0 0.0 0.00 0.00 0.00 76 1011.3
20240228044522 5 313 0.0 0.0 0.00 0.00 0.00 75 1011.5
20240228044020 5 313 0.0 1.0 0.00 0.00 0.00 74 1011.4
20240228043519 6 313 0.0 2.0 0.00 0.00 0.00 73 1011.4
20240228043018 7 313 1.0 2.0 0.00 0.00 0.00 73 1011.4
20240228042516 7 313 1.0 2.0 0.00 0.00 0.00 72 1011.5
20240228042016 6 313 2.0 5.0 0.00 0.00 0.00 73 1011.6
20240228041514 6 313 2.0 5.0 0.00 0.00 0.00 73 1011.8
20240228041016 6 313 4.0 5.0 0.00 0.00 0.00 73 1011.8
20240228040511 6 313 4.0 5.0 0.00 0.00 0.00 73 1011.8
20240228040010 6 313 4.0 5.0 0.00 0.00 0.00 73 1011.9
20240228035507 6 313 4.0 5.0 0.00 0.00 0.00 73 1011.7
20240228035006 6 313 4.0 6.0 0.00 0.00 0.00 73 1011.7
20240228034506 5 313 5.0 6.0 0.00 0.00 0.00 73 1011.8
20240228034004 5 314 4.0 6.0 0.00 0.00 0.00 73 1011.6
20240228033503 6 314 4.0 6.0 0.00 0.00 0.00 73 1011.6
20240228033001 6 314 4.0 6.0 0.00 0.00 0.00 72 1011.6
20240228032559 6 314 4.0 6.0 0.00 0.00 0.00 72 1011.5
20240228032059 6 314 5.0 6.0 0.00 0.00 0.00 72 1011.4
20240228031059 6 313 5.0 6.0 0.00 0.00 0.00 71 1011.5
20240228030557 6 313 4.0 6.0 0.00 0.00 0.00 71 1011.6
20240228030056 7 313 4.0 5.0 0.00 0.00 0.00 71 1011.5
20240228025555 7 313 4.0 5.0 0.00 0.00 0.00 71 1011.6
20240228025053 7 313 3.0 5.0 0.00 0.00 0.00 71 1011.4
20240228024551 7 313 4.0 5.0 0.00 0.00 0.00 71 1011.6
20240228024049 6 313 4.0 6.0 0.00 0.00 0.00 72 1011.5
20240228023548 6 313 4.0 5.0 0.00 0.00 0.00 72 1011.5
20240228023047 6 313 4.0 5.0 0.00 0.00 0.00 72 1011.5
20240228022545 6 313 4.0 5.0 0.00 0.00 0.00 72 1011.5
20240228022044 6 313 4.0 5.0 0.00 0.00 0.00 72 1011.7
20240228021043 7 317 4.0 5.0 0.00 0.00 0.00 71 1011.4
20240228020539 7 317 4.0 5.0 0.00 0.00 0.00 70 1011.3
20240228020051 7 317 4.0 5.0 0.00 0.00 0.00 70 1011.3
20240228015536 7 317 4.0 5.0 0.00 0.00 0.00 69 1011.3
20240228015035 8 317 4.0 5.0 0.00 0.00 0.00 68 1011.2
20240228014534 8 317 3.0 4.0 0.00 0.00 0.00 68 1011.1
20240228014035 8 317 2.0 4.0 0.00 0.00 0.00 67 1011.2
20240228013531 8 318 3.0 5.0 0.00 0.00 0.00 68 1011.2
20240228013030 8 318 4.0 5.0 0.00 0.00 0.00 67 1011.2
20240228012528 8 318 4.0 5.0 0.00 0.00 0.00 67 1011.1
20240228012027 8 318 4.0 5.0 0.00 0.00 0.00 66 1011.2
20240228011026 8 318 4.0 5.0 0.00 0.00 0.00 66 1011.1
20240228010525 8 317 4.0 5.0 0.00 0.00 0.00 65 1011.3
20240228010036 8 316 4.0 5.0 0.00 0.00 0.00 66 1011.2
20240228005522 8 316 4.0 5.0 0.00 0.00 0.00 65 1011.2
20240228005024 9 317 3.0 3.0 0.00 0.00 0.00 64 1011.2
20240228004519 9 317 3.0 6.0 0.00 0.00 0.00 63 1011.2
20240228004019 9 317 4.0 6.0 0.00 0.00 0.00 62 1011.1
20240228003519 10 316 4.0 6.0 0.00 0.00 0.00 61 1011.1
20240228003016 10 311 4.0 6.0 0.00 0.00 0.00 60 1011.0
20240228002513 10 311 3.0 5.0 0.00 0.00 0.00 60 1011.0
20240228002013 10 318 4.0 7.0 0.00 0.00 0.00 59 1010.9
20240228001012 11 315 5.0 10.0 0.00 0.00 0.00 58 1010.9
20240228000509 11 313 7.0 10.0 0.00 0.00 0.00 57 1010.9
20240228000011 11 317 6.0 9.0 0.00 0.00 0.00 56 1010.8
20240227235506 12 360 6.0 11.0 0.00 0.00 0.00 56 1010.9
20240227235007 12 360 7.0 11.0 0.00 0.00 0.00 56 1010.8
20240227234504 12 360 7.0 10.0 0.00 0.00 0.00 55 1010.8
20240227234002 13 360 7.0 10.0 0.00 0.00 0.00 54 1010.7
20240227233601 13 360 5.0 10.0 0.00 0.00 0.00 54 1010.7
20240227233100 13 360 5.0 12.0 0.00 0.00 0.00 54 1010.6
20240227232558 13 360 8.0 12.0 0.00 0.00 0.00 55 1010.6
20240227232057 13 360 8.0 11.0 0.00 0.00 0.00 54 1010.5
20240227231055 13 360 8.0 12.0 0.00 0.00 0.00 54 1010.5
20240227230553 13 360 9.0 14.0 0.00 0.00 0.00 53 1010.4
20240227230056 13 360 9.0 14.0 0.00 0.00 0.00 54 1010.3
20240227225550 13 314 7.0 13.0 0.00 0.00 0.00 54 1010.5
20240227225049 12 360 5.0 18.0 0.00 0.00 0.00 54 1010.5
20240227224557 12 360 9.0 13.0 0.00 0.00 0.00 54 1010.2
20240227224047 13 360 9.0 13.0 0.00 0.00 0.00 53 1010.4
20240227223545 13 323 5.0 13.0 0.00 0.00 0.00 53 1010.3
20240227223059 13 292 9.0 13.0 0.00 0.00 0.00 54 1010.3
20240227222542 13 325 7.0 13.0 0.00 0.00 0.00 53 1010.3
20240227222040 13 254 6.0 11.0 0.00 0.00 0.00 54 1010.2
20240227221038 13 299 5.0 13.0 0.00 0.00 0.00 54 1010.1
20240227220537 13 360 8.0 13.0 0.00 0.00 0.00 56 1010.1
20240227220042 13 360 9.0 12.0 0.00 0.00 0.00 55 1010.0
20240227215534 13 311 5.0 13.0 0.00 0.00 0.00 56 1009.9
20240227215031 12 305 9.0 13.0 0.00 0.00 0.00 57 1009.8
20240227214535 11 360 6.0 16.0 0.00 0.00 0.00 56 1009.7
20240227214029 12 360 9.0 16.0 0.00 0.00 0.00 54 1009.9
20240227213528 12 290 8.0 12.0 0.00 0.00 0.00 58 1009.7
20240227213027 12 267 6.0 13.0 0.00 0.00 0.00 55 1009.6
20240227212525 12 342 6.0 15.0 0.00 0.00 0.00 54 1009.5
20240227212023 13 324 10.0 15.0 0.00 0.00 0.00 56 1009.6
20240227211022 12 281 6.0 13.0 0.00 0.00 0.00 57 1009.5
20240227210520 12 360 9.0 14.0 0.00 0.00 0.00 56 1009.6
20240227210048 12 360 9.0 19.0 0.00 0.00 0.00 57 1009.6
20240227205517 12 360 7.0 15.0 0.00 0.00 0.00 56 1009.6
20240227205016 12 360 10.0 15.0 0.00 0.00 0.00 56 1009.6
20240227204516 11 311 6.0 15.0 0.00 0.00 0.00 58 1009.6
20240227204012 11 360 10.0 15.0 0.00 0.00 0.00 59 1009.6
20240227203512 11 351 8.0 14.0 0.00 0.00 0.00 59 1009.6
20240227203014 11 360 8.0 14.0 0.00 0.00 0.00 59 1009.5
20240227202508 11 360 9.0 14.0 0.00 0.00 0.00 59 1009.7
20240227202008 11 300 10.0 14.0 0.00 0.00 0.00 61 1009.4
20240227201006 10 321 9.0 19.0 0.00 0.00 0.00 63 1009.6
20240227200504 10 315 9.0 19.0 0.00 0.00 0.00 62 1009.3
20240227200003 10 355 8.0 15.0 0.00 0.00 0.00 61 1009.3
20240227195502 10 293 10.0 15.0 0.00 0.00 0.00 61 1009.5
20240227195100 10 360 8.0 13.0 0.00 0.00 0.00 63 1009.4
20240227194558 9 336 6.0 14.0 0.00 0.00 0.00 62 1009.4
20240227194057 9 286 7.0 18.0 0.00 0.00 0.00 62 1009.4
20240227193556 9 9 10.0 18.0 0.00 0.00 0.00 64 1009.3
20240227193059 9 14 9.0 14.0 0.00 0.00 0.00 63 1009.4
20240227192553 8 316 7.0 14.0 0.00 0.00 0.00 62 1009.3
20240227192052 8 355 8.0 16.0 0.00 0.00 0.00 64 1009.4
20240227191050 8 302 5.0 12.0 0.00 0.00 0.00 65 1009.7
20240227190549 8 5 6.0 15.0 0.00 0.00 0.00 64 1009.7
20240227190051 8 355 10.0 15.0 0.00 0.00 0.00 67 1009.7
20240227185546 7 292 9.0 15.0 0.00 0.00 0.00 66 1009.6
20240227185045 7 350 9.0 15.0 0.00 0.00 0.00 66 1009.8
20240227184544 7 348 10.0 16.0 0.00 0.00 0.00 66 1009.8
20240227184042 7 294 10.0 16.0 0.00 0.00 0.00 67 1009.6
20240227183541 7 31 9.0 16.0 0.00 0.00 0.00 67 1009.8
20240227183039 7 304 10.0 16.0 0.00 0.00 0.00 67 1009.6
20240227182538 7 329 10.0 16.0 0.00 0.00 0.00 70 1009.6
20240227182038 7 316 12.0 15.0 0.00 0.00 0.00 70 1009.6
20240227181037 6 360 11.0 20.0 0.00 0.00 0.00 69 1009.6
20240227180532 6 5 12.0 19.0 0.00 0.00 0.00 68 1009.6
20240227180032 6 347 13.0 18.0 0.00 0.00 0.00 70 1009.6
20240227175530 6 341 10.0 18.0 0.00 0.00 0.00 67 1009.6
20240227175027 6 15 7.0 18.0 0.00 0.00 0.00 71 1009.4
20240227174526 6 321 11.0 18.0 0.00 0.00 0.00 69 1009.4
20240227174025 6 360 10.0 16.0 0.00 0.00 0.00 71 1009.3
20240227173524 5 360 8.0 16.0 0.00 0.00 0.00 72 1009.3
20240227173029 4 349 9.0 16.0 0.00 0.00 0.00 70 1009.2
20240227172520 5 321 9.0 18.0 0.00 0.00 0.00 72 1009.1
20240227172018 4 347 12.0 18.0 0.00 0.00 0.00 72 1009.1
20240227171020 2 344 10.0 14.0 0.00 0.00 0.00 71 1009.1
20240227170516 2 342 8.0 15.0 0.00 0.00 0.00 72 1008.9
20240227170018 2 321 10.0 15.0 0.00 0.00 0.00 72 1008.9
20240227165514 2 312 11.0 15.0 0.00 0.00 0.00 73 1008.9
20240227165013 1 338 10.0 16.0 0.00 0.00 0.00 72 1008.8
20240227164531 1 318 11.0 18.0 0.00 0.00 0.00 71 1008.8
20240227164009 2 317 9.0 18.0 0.00 0.00 0.00 72 1008.7
20240227163508 1 347 12.0 19.0 0.00 0.00 0.00 72 1008.6
20240227163008 1 323 13.0 19.0 0.00 0.00 0.00 72 1008.5
20240227162506 1 5 10.0 19.0 0.00 0.00 0.00 73 1008.7
20240227162004 0 298 11.0 19.0 0.00 0.00 0.00 72 1008.6
20240227161004 2 312 12.0 19.0 0.00 0.00 0.00 70 1008.5
20240227160500 2 313 12.0 18.0 0.00 0.00 0.00 71 1008.3
20240227160059 2 336 11.0 18.0 0.00 0.00 0.00 73 1008.4
20240227155558 1 360 11.0 16.0 0.00 0.00 0.00 74 1008.3
20240227155057 0 360 10.0 18.0 0.00 0.00 0.00 73 1008.3
20240227154555 0 360 13.0 18.0 0.00 0.00 0.00 73 1008.2
20240227154054 1 360 14.0 20.0 0.00 0.00 0.00 72 1008.0
20240227153552 1 360 13.0 20.0 0.00 0.00 0.00 72 1007.9
20240227153110 1 360 12.0 16.0 0.00 0.00 0.00 73 1007.7
20240227152549 1 360 11.0 16.0 0.00 0.00 0.00 73 1007.7
20240227152048 0 338 11.0 18.0 0.00 0.00 0.00 74 1007.7
20240227151647 0 292 12.0 16.0 0.00 0.00 0.00 74 1007.5
20240227151048 0 360 12.0 18.0 0.00 0.00 0.00 74 1007.7
20240227150547 0 360 11.0 18.0 0.00 0.00 0.00 74 1007.4
20240227150044 0 360 12.0 18.0 0.00 0.00 0.00 73 1007.3
20240227145542 0 360 11.0 20.0 0.00 0.00 0.00 75 1007.3
20240227145040 0 360 11.0 20.0 0.00 0.00 0.00 75 1007.0
20240227144549 0 360 14.0 19.0 0.00 0.00 0.00 76 1006.9
20240227144040 -1 360 12.0 20.0 0.00 0.00 0.00 76 1006.8
20240227143536 -1 360 13.0 20.0 0.00 0.00 0.00 75 1006.7
20240227143055 -1 360 11.0 22.0 0.00 0.00 0.00 75 1006.5
20240227142534 -1 360 13.0 19.0 0.00 0.00 0.00 75 1006.5
20240227142034 -1 314 13.0 19.0 0.00 0.00 0.00 75 1006.3
20240227141030 -1 336 13.0 20.0 0.00 0.00 0.00 76 1005.9
20240227140529 -1 302 14.0 22.0 0.00 0.00 0.00 76 1005.7
20240227140037 -1 317 15.0 22.0 0.00 0.00 0.00 76 1005.5
20240227135527 -1 326 12.0 21.0 0.00 0.00 0.00 76 1005.5
20240227135025 -1 323 14.0 21.0 0.00 0.00 0.00 76 1005.1
20240227134531 -1 329 14.0 20.0 0.00 0.00 0.00 76 1005.0
20240227134021 -1 333 13.0 22.0 0.00 0.00 0.00 76 1004.9
20240227133520 -1 320 16.0 22.0 0.00 0.00 0.00 76 1004.5
20240227133027 -1 317 15.0 22.0 0.00 0.00 0.00 76 1004.5
20240227132519 0 319 16.0 22.0 0.00 0.00 0.00 76 1004.4
20240227132016 0 311 11.0 20.0 0.00 0.00 0.00 76 1004.2
20240227131015 0 331 15.0 21.0 0.00 0.00 0.00 76 1004.0
20240227130513 0 322 14.0 20.0 0.00 0.00 0.00 76 1003.8
20240227130032 0 330 12.0 20.0 0.00 0.00 0.00 75 1003.9
20240227125510 0 325 15.0 21.0 0.00 0.00 0.00 75 1003.8
20240227125009 0 329 15.0 21.0 0.00 0.00 0.00 74 1003.7
20240227124515 0 341 16.0 22.0 0.00 0.00 0.00 73 1003.6
20240227124005 0 326 17.0 23.0 0.00 0.00 0.00 74 1003.7
20240227123508 0 326 14.0 23.0 0.00 0.00 0.00 74 1003.6
20240227123003 0 340 14.0 21.0 0.00 0.00 0.00 74 1003.6
20240227122506 0 310 14.0 23.0 0.00 0.00 0.00 73 1003.5
20240227122103 1 326 15.0 23.0 0.00 0.00 0.00 73 1003.6
20240227121700 1 334 14.0 23.0 0.00 0.00 0.00 73 1003.6
20240227121059 1 344 16.0 23.0 0.00 0.00 0.00 73 1003.2
20240227120558 1 306 16.0 21.0 0.00 0.00 0.00 74 1002.9
20240227120100 1 321 14.0 21.0 0.00 0.00 0.00 74 1002.7
20240227115556 1 316 14.0 22.0 0.00 0.00 0.00 74 1002.7
20240227115054 1 329 16.0 22.0 0.00 0.00 0.00 73 1002.5
20240227114558 1 323 13.0 20.0 0.00 0.00 0.00 75 1002.5
20240227114522 1 317 13.0 20.0 0.00 0.00 0.00 75 1002.4
20240227114055 1 317 13.0 20.0 0.00 0.00 0.00 74 1002.2
20240227113549 1 321 13.0 20.0 0.00 0.00 0.00 73 1002.3
20240227113057 1 331 14.0 23.0 0.00 0.00 0.00 74 1002.3
20240227112546 1 340 16.0 23.0 0.00 0.00 0.00 73 1002.3
20240227112047 1 355 15.0 22.0 0.00 0.00 0.00 73 1002.0
20240227111644 1 309 14.0 22.0 0.00 0.00 0.00 74 1002.0
20240227111043 1 323 17.0 23.0 0.00 0.00 0.00 73 1001.8
20240227110541 1 333 15.0 23.0 0.00 0.00 0.00 73 1001.7
20240227110040 1 308 17.0 24.0 0.00 0.00 0.00 74 1001.5
20240227105539 1 299 17.0 24.0 0.00 0.00 0.00 73 1001.2
20240227105040 1 325 16.0 23.0 0.00 0.00 0.00 73 1000.9
20240227104536 1 316 14.0 23.0 0.00 0.00 0.00 74 1000.8
20240227104034 1 321 18.0 23.0 0.00 0.00 0.00 73 1000.8
20240227103536 1 321 16.0 22.0 0.00 0.00 0.00 73 1000.8
20240227103036 1 317 17.0 23.0 0.00 0.00 0.00 73 1000.8
20240227102530 1 309 16.0 23.0 0.00 0.00 0.00 74 1000.9
20240227102029 1 314 15.0 22.0 0.00 0.00 0.00 75 1000.6
20240227101629 1 304 14.0 22.0 0.00 0.00 0.00 74 1000.6
20240227101027 1 307 13.0 21.0 0.00 0.00 0.00 75 1000.3
20240227100525 1 313 15.0 22.0 0.00 0.00 0.00 74 1000.2
20240227100024 1 306 15.0 24.0 0.00 0.00 0.00 72 1000.0
20240227095523 1 315 18.0 24.0 0.00 0.00 0.00 72 999.9
20240227095021 1 310 14.0 24.0 0.00 0.00 0.00 72 999.9
20240227094521 1 340 18.0 23.0 0.00 0.00 0.00 72 999.9
20240227094019 1 325 16.0 23.0 0.00 0.00 0.00 72 1000.0
20240227093517 1 318 16.0 24.0 0.00 0.00 0.00 72 999.9
20240227093019 1 313 16.0 24.0 0.00 0.00 0.00 72 1000.3
20240227092513 1 310 17.0 24.0 0.00 0.00 0.00 72 1000.3
20240227092013 1 303 16.0 25.0 0.00 0.00 0.00 73 1000.2
20240227091612 1 294 18.0 25.0 0.00 0.00 0.00 73 1000.1
20240227091012 1 315 18.0 23.0 0.00 0.00 0.00 73 1000.1
20240227090510 1 304 14.0 23.0 0.00 0.00 0.00 72 1000.4
20240227090010 1 323 16.0 27.0 0.00 0.00 0.00 72 999.9
20240227085507 1 322 19.0 27.0 0.00 0.00 0.00 71 999.3
20240227085006 1 331 19.0 26.0 0.00 0.00 0.00 71 999.1
20240227084506 1 323 18.0 27.0 0.00 0.00 0.00 70 999.5
20240227084002 2 311 21.0 27.0 0.00 0.00 0.00 70 999.3
20240227083501 2 328 19.0 25.0 0.00 0.00 0.00 71 999.1
20240227083111 2 316 17.0 27.0 0.00 0.00 0.00 72 999.2
20240227082559 2 312 20.0 27.0 0.00 0.00 0.00 71 999.4
20240227082058 2 332 19.0 27.0 0.00 0.00 0.00 71 999.3
20240227081601 2 321 17.0 26.0 0.00 0.00 0.00 71 999.1
20240227080553 3 327 18.0 25.0 0.00 0.00 0.00 72 998.7
20240227080053 3 325 18.0 25.0 0.00 0.00 0.00 71 998.7
20240227075551 3 316 16.0 23.0 0.00 0.00 0.00 73 998.8
20240227075053 3 309 17.0 25.0 0.00 0.00 0.00 73 998.9
20240227074548 3 306 17.0 25.0 0.00 0.00 0.00 72 998.7
20240227074047 3 298 16.0 24.0 0.00 0.00 0.00 73 998.8
20240227073546 3 313 18.0 24.0 0.00 0.00 0.00 72 998.6
20240227073043 4 303 16.0 23.0 0.00 0.00 0.00 73 998.4
20240227072543 4 323 15.0 23.0 0.00 0.00 0.00 74 998.4
20240227072041 4 311 16.0 23.0 0.00 0.00 0.00 73 998.4
20240227071540 4 318 16.0 23.0 0.00 0.00 0.00 73 998.2
20240227070538 4 334 17.0 25.0 0.00 0.00 0.00 72 998.2
20240227070037 4 312 16.0 25.0 0.00 0.00 0.00 73 998.3
20240227065537 5 304 19.0 24.0 0.00 0.00 0.00 72 998.4
20240227065035 5 304 18.0 24.0 0.00 0.00 0.00 73 998.4
20240227064533 5 323 16.0 23.0 0.00 0.00 0.00 74 998.2
20240227064034 5 317 13.0 23.0 0.00 0.00 0.00 75 997.8
20240227063530 5 310 16.0 23.0 0.00 0.00 0.00 74 997.9
20240227063040 6 327 15.0 24.0 0.00 0.00 0.00 75 997.7
20240227062527 6 290 19.0 24.0 0.00 0.00 0.00 75 997.5
20240227062027 6 309 17.0 25.0 0.00 0.00 0.00 74 997.6
20240227061529 6 310 19.0 26.0 0.00 0.00 0.00 74 997.7
20240227060523 6 298 20.0 26.0 0.00 0.00 0.00 74 997.3
20240227060030 6 289 16.0 24.0 0.00 0.00 0.00 75 996.8
20240227055519 6 317 18.0 25.0 0.00 0.00 0.00 74 996.3
20240227055018 6 317 20.0 25.0 0.00 0.00 0.00 75 996.4
20240227054517 6 306 15.0 29.0 0.00 0.00 0.00 75 996.5